User: anonymous   Login
Location: Unspecified
(0.0000°N, 0.0000°E)
Time: 00:49:53
(UTC+00:00)
Language:

Picosat 4 - Orbit

View from above orbital plane
View from above orbital plane
View from above satellite
View from above satellite

Ground track
Ground track

The orbit data is extracted from the following two-line orbital elements,

1 26092U 00004K   24201.55840388  .00001772  00000-0  50955-3 0  9997
2 26092 100.1942  75.1401 0032770 348.6912  11.3534 14.46152418285411
Epoch (UTC): 19 July 2024 13:24:06
Eccentricity: 0.0032770
inclination: 100.1942°
perigee height: 715 km
apogee height: 761 km
right ascension of ascending node: 75.1401°
argument of perigee: 348.6912°
revolutions per day: 14.46152418
mean anomaly at epoch: 11.3534°
orbit number at epoch: 28541

The dashed part of the orbit path shows where the satellite is in the earth's shadow,  

DLR